Change the Weather History Date:

Friday, February 8, 2013

  Actual Average Record
Temperature  
Mean Temperature 55 °F 49 °F  
Max Temperature 67 °F 61 °F 88 °F (1962)
Min Temperature 42 °F 38 °F 7 °F (1933)
Degree Days  
Heating Degree Days 10 16  
Month to date heating degree days 57 131  
Since 1 July heating degree days 1291 1539  
Cooling Degree Days 0 0  
Month to date cooling degree days 6 0  
Year to date cooling degree days 17 3  
Growing Degree Days 5 (Base 50)    
Moisture  
Dew Point 33 °F    
Average Humidity 47    
Maximum Humidity 77    
Minimum Humidity 16    
Precipitation  
Precipitation 0.00 in 0.09 in 2.01 in (1908)
Month to date precipitation T 0.65  
Year to date precipitation 5.05 2.77  
Snow  
Snow 0.00 in 0.00 in T in (2003)
Month to date snowfall 0.0 0.1  
Since 1 July snowfall T 0.5  
Snow Depth 0.00 in    
Sea Level Pressure  
Sea Level Pressure 30.16 in    
Wind  
Wind Speed 9 mph (NNE)    
Max Wind Speed 22 mph    
Max Gust Speed 26 mph    
Visibility 10 miles    
Events      
T = Trace of Precipitation, MM = Missing Value Source: NWS Daily Summary

Daily Weather History Graph

Daily Weather History Graph

Search for Another Location

Airport or City:

Trip Planner

Search our weather history database for the weather conditions in past years. The results will help you decide how hot, cold, wet, or windy it might be!

Date:

Astronomy

Feb. 08, 2013 Rise Set
Actual Time 7:16 AM CST 6:10 PM CST
Civil Twilight 6:51 AM CST 6:35 PM CST
Nautical Twilight 6:22 AM CST 7:04 PM CST
Astronomical Twilight 5:54 AM CST 7:32 PM CST
Moon 5:43 AM CST (2/8) 4:46 PM CST (2/8)
Length of Visible Light 11h 43m
Length of Day
10h 53m
Waning Crescent, 3% of the Moon is Illuminated
Feb 8
Waning Crescent
Feb 10
New
Feb 17
First Quarter
Feb 25
Full
Mar 4
Last Quarter

Hourly Weather History & Observations

Time (CST) Temp. Windchill Dew Point Humidity Pressure Visibility Wind Dir Wind Speed Gust Speed Precip Events Conditions
12:07 AM 55.4 °F - 44.6 °F 67% 30.11 in 10.0 mi NNW 16.1 mph - N/A   Mostly Cloudy
12:51 AM 55.0 °F - 45.0 °F 69% 30.11 in 10.0 mi NNW 15.0 mph 24.2 mph N/A   Overcast
1:51 AM 52.0 °F - 44.1 °F 74% 30.12 in 10.0 mi NNW 12.7 mph - N/A   Partly Cloudy
2:51 AM 50.0 °F - 39.9 °F 68% 30.13 in 10.0 mi NNW 11.5 mph - N/A   Clear
3:51 AM 48.9 °F - 39.0 °F 69% 30.14 in 10.0 mi NNW 10.4 mph - N/A   Clear
4:51 AM 48.0 °F - 37.9 °F 68% 30.15 in 10.0 mi NNW 12.7 mph - N/A   Clear
5:51 AM 46.9 °F - 37.9 °F 71% 30.18 in 10.0 mi NW 5.8 mph - N/A   Clear
6:51 AM 45.0 °F 40.1 °F 37.0 °F 74% 30.20 in 10.0 mi NNW 9.2 mph - N/A   Clear
7:51 AM 46.0 °F 41.4 °F 36.0 °F 68% 30.22 in 10.0 mi NNW 9.2 mph - N/A   Clear
8:51 AM 50.0 °F - 36.0 °F 59% 30.23 in 10.0 mi North 15.0 mph - N/A   Clear
9:51 AM 53.1 °F - 34.0 °F 48% 30.25 in 10.0 mi North 16.1 mph - N/A   Clear
10:51 AM 57.0 °F - 33.1 °F 40% 30.24 in 10.0 mi NNE 12.7 mph - N/A   Clear
11:51 AM 62.1 °F - 28.9 °F 29% 30.22 in 10.0 mi NNE 13.8 mph - N/A   Clear
12:51 PM 64.9 °F - 27.0 °F 24% 30.20 in 10.0 mi NE 11.5 mph - N/A   Clear
1:51 PM 64.9 °F - 23.0 °F 20% 30.17 in 10.0 mi Variable 4.6 mph 16.1 mph N/A   Clear
2:51 PM 66.0 °F - 19.9 °F 17% 30.15 in 10.0 mi NE 8.1 mph - N/A   Clear
3:51 PM 64.9 °F - 21.0 °F 19% 30.13 in 10.0 mi NE 8.1 mph - N/A   Clear
4:51 PM 64.9 °F - 21.0 °F 19% 30.12 in 10.0 mi NE 8.1 mph - N/A   Clear
5:51 PM 61.0 °F - 25.0 °F 25% 30.12 in 10.0 mi East 6.9 mph - N/A   Clear
6:51 PM 57.0 °F - 26.1 °F 30% 30.13 in 10.0 mi East 5.8 mph - N/A   Clear
7:51 PM 52.0 °F - 28.9 °F 41% 30.14 in 10.0 mi East 4.6 mph - N/A   Clear
8:51 PM 48.0 °F - 30.9 °F 52% 30.14 in 10.0 mi East 3.5 mph - N/A   Clear
9:51 PM 44.1 °F 42.5 °F 33.1 °F 65% 30.14 in 10.0 mi NE 3.5 mph - N/A   Clear
10:51 PM 45.0 °F 41.2 °F 34.0 °F 65% 30.13 in 10.0 mi ENE 6.9 mph - N/A   Clear
11:51 PM 48.9 °F - 41.0 °F 74% 30.13 in 10.0 mi ESE 5.8 mph - N/A   Clear